Location: Newark
(5.8900°S, 42.6378°W)
Time: 20:13:02
(UTC+00:00)

SR - All Passes

Search period start: 23 September 2019 00:00
Search period end: 03 October 2019 00:00
Orbit: 576 x 880 km, 66.7° (Epoch: 23 September)

Date Brightness Start Highest point End Pass type
(mag) Time Alt. Az. Time Alt. Az. Time Alt. Az.
23 Sep - 05:13:45 10° SSE 05:17:09 24° ESE 05:20:37 10° ENE night (unlit)
23 Sep - 06:56:56 10° W 06:58:53 13° WNW 07:00:52 10° NW night (unlit)
23 Sep - 17:41:20 10° N 17:46:59 50° ENE 17:52:23 10° SE daylight
23 Sep - 19:26:29 10° W 19:28:51 13° WSW 19:31:11 10° SW daylight
24 Sep - 06:05:24 10° SW 06:09:19 37° WNW 06:13:23 10° N night (unlit)
24 Sep - 16:53:07 10° NNE 16:57:23 21° ENE 17:01:32 10° ESE daylight
24 Sep - 18:34:11 10° NW 18:39:15 31° WSW 18:44:06 10° S daylight
25 Sep - 05:15:35 10° SSW 05:19:46 67° ESE 05:24:07 10° NNE night (unlit)
25 Sep - 17:43:51 10° NNW 17:49:41 74° WSW 17:55:14 10° SSE daylight
26 Sep - 04:26:58 10° SSE 04:30:14 22° ESE 04:33:34 10° ENE night (unlit)
26 Sep - 06:09:39 10° WSW 06:11:58 14° WNW 06:14:21 10° NW night (unlit)
26 Sep - 16:54:32 10° N 17:00:06 46° ENE 17:05:26 10° SE daylight
26 Sep - 18:39:13 10° W 18:41:58 14° WSW 18:44:40 10° SW daylight
27 Sep - 05:18:24 10° SW 05:22:24 42° WNW 05:26:34 10° N night (unlit)
27 Sep - 16:06:28 10° NNE 16:10:30 19° ENE 16:14:26 10° ESE daylight
27 Sep - 17:47:13 10° NW 17:52:22 33° WSW 17:57:18 10° S daylight
28 Sep - 04:28:42 10° S 04:32:52 60° ESE 04:37:12 10° NNE night (unlit)
28 Sep - 16:56:58 10° NNW 17:02:49 80° WSW 17:08:20 10° SSE daylight
29 Sep - 03:40:13 10° SSE 03:43:19 20° ESE 03:46:30 10° ENE night (unlit)
29 Sep - 05:22:26 10° WSW 05:25:04 16° WNW 05:27:45 10° NNW night (unlit)
29 Sep - 16:07:44 10° N 16:13:14 42° ENE 16:18:27 10° SE daylight
29 Sep - 17:52:00 10° WNW 17:55:05 15° WSW 17:58:06 10° SW daylight
30 Sep - 04:31:25 10° SW 04:35:29 46° WNW 04:39:45 10° N night (unlit)
30 Sep - 15:19:51 10° NNE 15:23:37 18° ENE 15:27:18 10° ESE daylight
30 Sep - 17:00:15 10° NW 17:05:29 35° WSW 17:10:29 10° S daylight
01 Oct - 03:41:49 10° S 03:45:57 54° ESE 03:50:15 10° NNE night (unlit)
01 Oct - 16:10:06 10° NNW 16:15:56 86° WSW 16:21:27 10° SSE daylight
02 Oct - 02:53:28 10° SSE 02:56:25 18° ESE 02:59:24 10° ENE night (unlit)
02 Oct - 04:35:16 10° WSW 04:38:09 18° WNW 04:41:07 10° NNW night (unlit)
02 Oct - 15:20:59 10° N 15:26:21 39° ENE 15:31:28 10° SE daylight
02 Oct - 17:04:50 10° WNW 17:08:12 16° WSW 17:11:28 10° SSW daylight
